SCP
1 1 1 1 1 2 2 2 2 2 2 3 2 2 2 2 1 1 1 0 0 0 0 0 0 0 0 0 0 0 0 0 0 0 0 0 0 1
1 1 1 1 1 2 2 2 2 2 3 3 2 2 2 1 1 1 1 0 0 0 0 0 0 0 0 0 0 0 0 0 0 0 0 0 0 0
1 1 1 1 1 2 2 2 2 3 3 2 2 1 1 1 0 0 0 0 0 0 0 0 0 0 0 0 0 0 0 0 0 0 0 0 0 0
0 0 0 1 1 1 2 2 2 2 2 2 1 1 0 0 0 0 0 0 0 0 0 0 0 0 0 0 0 0 0 0 0 0 0 0 0 0
0 0 0 1 1 1 1 2 2 2 2 1 1 0 0 0 0 0 0 0 0 0 0 0 0 0 0 0 0 0 0 0 0 0 0 0 0 0
0 0 0 1 1 1 1 1 1 1 1 1 1 0 0 0 0 0 0 0 0 0 0 0 0 0 0 0 0 0 0 0 0 0 0 0 0 0
0 0 0 0 0 0 0 0 0 1 1 0 0 0 0 0 0 0 0 0 0 0 0 0 0 0 0 0 0 0 0 0 0 0 0 0 0 0
0 0 0 0 0 0 0 0 0 0 0 0 0 0 0 0 0 0 0 0 0 0 0 0 0 0 0 0 0 0 0 0 0 0 0 0 0 0
0 0 0 0 0 0 0 0 0 0 0 0 0 0 0 0 0 0 0 0 0 0 0 0 0 0 0 0 0 0 0 0 0 0 0 0 0 0
0 0 0 0 0 0 0 0 0 0 0 0 0 0 0 0 0 0 0 0 0 0 0 0 0 0 0 0 0 0 0 0 0 0 0 0 0 0
0 0 0 0 0 0 0 0 0 0 0 0 0 0 0 0 0 0 0 0 0 0 0 0 0 0 0 0 0 0 0 0 0 0 0 0 0 0
0 0 0 0 0 0 0 0 0 0 0 0 0 0 0 0 0 0 0 0 0 0 0 0 0 0 0 0 0 0 0 0 0 0 0 0 0 0
0 0 0 0 0 0 0 0 0 0 0 0 0 0 0 0 0 0 0 0 0 0 0 0 0 0 0 0 0 0 0 0 0 0 0 0 0 0
0 0 0 0 0 0 0 0 0 0 0 0 0 0 0 0 0 0 0 0 0 0 0 0 0 0 0 0 0 0 0 0 0 0 0 0 0 0
0 0 0 0 0 0 0 0 0 0 0 0 0 0 0 0 0 0 0 0 0 0 0 0 0 0 0 0 0 0 0 0 0 0 0 0 0 0
0 0 0 0 0 0 0 0 0 0 0 0 0 0 0 0 0 0 0 0 0 0 0 0 0 0 0 0 0 0 0 0 0 0 0 0 0 0
0 0 0 0 0 0 0 0 0 0 0 0 0 0 0 0 0 0 0 0 0 0 0 0 0 0 0 0 0 0 0 0 0 0 0 0 0 0
0 0 0 0 0 0 0 0 0 0 0 0 0 0 0 0 0 0 0 -0 0 0 0 0 0 0 0 0 0 0 0 0 0 0 0 0 0 0
0 0 0 0 0 0 0 0 0 0 0 0 0 0 0 0 0 -0 -0 0 0 0 0 0 0 0 0 0 0 0 0 0 0 0 0 0 0 0
0 0 0 0 0 0 0 0 0 0 0 0 0 0 0 0 0 0 0 0 0 0 0 0 0 0 0 0 0 0 0 0 0 0 0 0 0 0
0 0 0 0 0 0 0 0 0 0 0 0 0 0 0 0 0 0 0 0 0 0 0 0 0 0 0 -0 0 0 0 0 0 0 0 0 0 0
0 0 0 0 0 0 0 0 0 0 0 0 0 0 0 0 0 0 0 0 0 0 0 0 0 0 0 0 0 0 0 0 0 0 0 0 0 0
0 0 0 0 0 0 0 0 0 0 0 0 0 0 0 0 0 0 0 0 0 0 0 0 0 0 0 0 0 0 0 0 0 0 0 0 0 0
Wind_Speed
11 11 10 10 10 10 10 10 9 7 7 5 4 4 5 6 5 6 6 8 7 8 9 10 11 12 11 12 12 12 12 12 12 12 11 9 5 2
9 10 10 9 8 9 9 9 9 7 4 3 4 5 6 6 7 7 8 10 10 9 11 12 12 13 13 13 13 14 13 13 13 12 12 11 9 7
8 8 9 9 7 7 7 7 7 6 5 5 5 6 7 7 6 6 6 7 9 12 13 14 14 14 14 14 14 14 14 13 13 13 12 11 10 8
7 6 7 6 6 6 5 6 6 6 8 11 7 5 6 7 7 6 7 9 10 14 15 15 14 14 14 13 13 13 13 13 13 12 12 11 10 9
5 5 5 4 2 1 2 3 4 6 9 11 9 6 6 7 8 9 10 8 11 12 13 14 13 13 12 11 10 10 10 10 10 10 10 10 9 9
4 4 4 4 4 5 5 6 8 9 9 9 8 7 7 8 8 9 9 8 8 10 9 10 12 13 13 12 12 11 10 10 10 10 10 9 9 9
2 3 5 7 8 7 6 7 8 7 6 6 7 8 8 8 8 8 9 9 8 8 9 9 9 8 10 12 13 13 12 11 11 11 11 10 10 9
2 3 5 7 11 12 12 10 7 6 5 5 6 8 8 7 6 7 8 8 7 5 6 6 6 7 8 9 10 10 11 11 12 12 12 11 11 10
3 3 5 8 9 10 12 11 9 7 2 3 8 8 8 7 6 6 4 5 6 5 5 6 6 7 8 9 9 9 10 10 11 12 12 12 11 9
4 5 7 8 8 9 10 10 8 8 5 6 8 8 8 6 5 6 7 7 6 3 2 5 6 6 8 8 9 8 8 8 9 10 11 12 12 10
6 6 6 8 7 7 10 10 10 8 13 16 14 12 11 8 3 4 7 7 7 6 2 3 4 5 6 7 8 9 8 7 7 7 8 11 13 11
6 5 5 7 6 4 9 10 10 9 10 11 10 9 8 5 2 2 4 5 7 6 3 1 3 3 6 5 4 5 5 8 8 8 7 7 10 9
8 7 7 9 6 2 4 8 10 10 10 10 8 7 6 5 4 4 5 3 3 6 4 1 2 2 2 5 4 3 4 4 2 4 6 5 2 6
8 8 9 10 8 6 6 10 10 8 8 7 7 6 6 6 7 8 9 10 9 8 5 3 2 1 1 2 3 3 3 4 5 6 6 0 1 2
7 13 14 13 12 9 11 9 7 6 6 6 6 6 7 7 7 7 8 7 7 6 5 2 2 2 2 3 3 3 3 4 5 6 7 6 6 7
12 14 13 9 8 11 9 7 6 5 5 6 7 7 7 7 6 6 7 7 7 8 7 5 4 3 3 3 3 3 3 4 5 6 8 7 5 6
13 11 11 10 10 10 9 7 6 6 6 7 7 7 7 6 5 4 3 4 5 7 7 6 5 4 5 4 2 3 3 4 5 6 7 7 6 6
14 12 11 11 10 10 9 8 8 7 7 7 7 7 7 7 6 6 5 5 5 5 5 4 4 5 6 4 3 4 4 5 6 6 7 8 8 7
13 11 11 10 10 10 9 8 8 8 7 7 7 7 7 7 6 6 5 4 5 5 4 3 1 2 2 3 6 0 4 6 7 7 7 8 9 9
12 12 11 11 10 10 9 9 9 9 8 7 7 7 7 6 6 6 5 5 4 4 4 3 2 2 4 4 2 2 5 3 6 7 8 8 8 7
12 11 11 11 11 10 9 9 9 9 9 8 7 7 6 6 6 5 6 4 2 3 3 4 5 0 4 4 4 0 3 6 3 4 7 8 10 10
12 10 11 11 11 10 9 9 9 9 9 8 8 7 6 6 6 5 6 7 5 3 3 4 5 4 4 3 4 4 3 2 7 11 7 4 7 9
12 11 11 11 11 10 10 10 11 10 9 9 8 7 7 6 5 6 5 5 5 4 4 3 4 3 2 2 4 4 5 6 5 4 3 11 12 12
Wind_Direction
270 264 258 256 249 244 239 235 232 221 201 167 133 116 117 109 115 97 89 78 84 94 95 92 88 80 73 69 66 64 62 59 56 53 51 53 71 128
276 273 266 259 252 244 235 229 225 225 195 137 123 122 116 112 106 100 93 85 77 93 99 96 90 85 80 75 71 67 64 62 60 58 57 56 55 55
288 282 277 269 257 247 238 228 219 210 168 114 108 118 121 124 123 124 116 95 84 89 99 98 94 89 85 80 76 72 69 66 63 61 59 56 52 48
305 304 298 284 263 249 233 222 207 189 154 133 128 133 137 133 134 131 113 101 97 92 95 97 94 89 85 81 77 73 69 67 64 60 56 51 45 37
332 332 329 319 293 224 173 152 140 134 131 132 135 140 144 145 141 122 110 114 109 112 107 103 99 97 92 88 84 78 73 69 64 58 50 40 31 21
351 359 11 25 56 84 91 98 107 112 118 127 133 142 148 159 149 136 129 123 121 119 110 115 118 109 95 85 81 77 72 65 57 48 38 27 16 6
27 34 51 64 71 82 93 97 100 104 114 130 142 150 157 167 156 139 124 123 121 129 137 140 141 123 107 95 80 70 67 64 59 51 41 31 21 13
84 78 96 96 92 92 93 88 92 117 139 153 155 146 146 147 134 139 146 143 129 126 127 117 111 98 87 83 74 71 67 61 53 45 37 32 30 30
117 110 102 108 118 116 107 100 84 64 88 131 122 122 123 121 139 142 123 118 106 131 149 128 123 110 102 92 86 76 66 57 48 39 30 22 16 20
135 122 120 125 124 132 131 120 98 59 50 91 102 102 100 95 93 101 112 117 122 123 179 140 138 131 122 113 110 94 81 69 57 46 32 15 359 347
152 136 136 128 124 136 134 125 112 94 70 72 74 78 66 50 23 164 169 175 148 134 148 139 141 146 136 131 136 142 128 115 96 73 50 22 353 336
155 138 110 125 141 163 153 144 133 125 121 111 103 109 105 99 32 300 215 187 148 133 108 175 141 169 144 127 120 143 150 149 144 120 91 49 0 354
169 163 127 125 131 128 168 148 139 138 135 133 130 128 125 121 115 80 26 36 121 109 107 223 145 177 154 140 126 86 42 32 59 130 132 123 36 352
168 143 122 128 122 115 114 119 136 154 148 147 144 139 130 113 92 79 64 58 55 67 43 354 69 9 153 133 109 98 84 46 15 1 354 86 205 201
130 112 125 131 126 112 118 135 166 166 152 151 141 129 114 109 112 107 97 97 95 86 84 38 98 98 45 71 70 37 24 39 22 1 346 343 355 354
121 121 131 140 125 118 142 170 181 153 155 141 130 127 131 148 155 150 153 156 137 118 105 89 66 64 87 74 51 45 16 6 7 4 338 331 349 357
144 148 153 152 151 155 160 158 149 149 149 138 141 148 152 149 139 127 132 134 126 127 130 129 117 89 56 5 32 22 356 353 2 355 324 333 343 356
160 162 162 163 161 159 158 157 159 155 151 151 154 155 151 148 145 149 152 133 122 113 108 117 155 170 173 132 21 341 341 352 346 342 333 336 339 353
178 169 167 167 164 162 161 160 157 149 153 158 153 148 148 150 152 151 145 136 126 116 107 103 68 304 265 156 137 42 339 340 332 337 342 337 338 347
196 173 171 169 167 166 164 158 150 152 167 163 152 150 154 155 154 158 155 148 138 135 128 117 80 22 359 359 348 168 173 327 342 336 335 332 335 329
205 178 174 172 171 169 163 158 154 160 167 166 156 160 163 162 158 159 131 101 198 154 127 99 76 300 274 263 266 314 135 172 230 298 320 329 336 334
200 182 177 174 172 170 167 165 162 162 166 178 163 168 172 169 157 162 153 167 183 148 123 117 153 214 244 301 321 330 331 301 222 220 245 285 334 336
195 185 177 176 175 174 175 176 176 171 175 182 171 175 179 178 173 167 165 177 167 157 176 175 179 205 252 284 305 320 336 320 315 307 254 197 219 234